Datum;"Wasserstand in cm";"Stationsnummer: 0490805";"Stationsname: G�ritz";"Gew?sser: Dauergraben";"Fehlwerte: -777"
"25.03.2024 00:00";50
"25.03.2024 00:15";50
"25.03.2024 00:30";50
"25.03.2024 00:45";50
"25.03.2024 01:00";50
"25.03.2024 01:15";50
"25.03.2024 01:30";50
"25.03.2024 01:45";49
"25.03.2024 02:00";49
"25.03.2024 02:15";49
"25.03.2024 02:30";49
"25.03.2024 02:45";49
"25.03.2024 03:00";49
"25.03.2024 03:15";48
"25.03.2024 03:30";48
"25.03.2024 03:45";48
"25.03.2024 04:00";48
"25.03.2024 04:15";48
"25.03.2024 04:30";48
"25.03.2024 04:45";48
"25.03.2024 05:00";48
"25.03.2024 05:15";48
"25.03.2024 05:30";49
"25.03.2024 05:45";49
"25.03.2024 06:00";49
"25.03.2024 06:15";49
"25.03.2024 06:30";49
"25.03.2024 06:45";49
"25.03.2024 07:00";50
"25.03.2024 07:15";50
"25.03.2024 07:30";50
"25.03.2024 07:45";50
"25.03.2024 08:00";51
"25.03.2024 08:15";51
"25.03.2024 08:30";51
"25.03.2024 08:45";51
"25.03.2024 09:00";51
"25.03.2024 09:15";51
"25.03.2024 09:30";51
"25.03.2024 09:45";51
"25.03.2024 10:00";51
"25.03.2024 10:15";51
"25.03.2024 10:30";51
"25.03.2024 10:45";51
"25.03.2024 11:00";51
"25.03.2024 11:15";51
"25.03.2024 11:30";51
"25.03.2024 11:45";51
"25.03.2024 12:00";51
"25.03.2024 12:15";51
"25.03.2024 12:30";51
"25.03.2024 12:45";51
"25.03.2024 13:00";51
"25.03.2024 13:15";51
"25.03.2024 13:30";51
"25.03.2024 13:45";51
"25.03.2024 14:00";50
"25.03.2024 14:15";50
"25.03.2024 14:30";50
"25.03.2024 14:45";50
"25.03.2024 15:00";50
"25.03.2024 15:15";50
"25.03.2024 15:30";50
"25.03.2024 15:45";50
"25.03.2024 16:00";50
"25.03.2024 16:15";50
"25.03.2024 16:30";50
"25.03.2024 16:45";50
"25.03.2024 17:00";50
"25.03.2024 17:15";50
"25.03.2024 17:30";49
"25.03.2024 17:45";49
"25.03.2024 18:00";49
"25.03.2024 18:15";49
"25.03.2024 18:30";49
"25.03.2024 18:45";49
"25.03.2024 19:00";49
"25.03.2024 19:15";49
"25.03.2024 19:30";49
"25.03.2024 19:45";49
"25.03.2024 20:00";49
"25.03.2024 20:15";49
"25.03.2024 20:30";49
"25.03.2024 20:45";49
"25.03.2024 21:00";48
"25.03.2024 21:15";48
"25.03.2024 21:30";48
"25.03.2024 21:45";48
"25.03.2024 22:00";48
"25.03.2024 22:15";48
"25.03.2024 22:30";48
"25.03.2024 22:45";48
"25.03.2024 23:00";48
"25.03.2024 23:15";48
"25.03.2024 23:30";48
"25.03.2024 23:45";48
"26.03.2024 00:00";48
"26.03.2024 00:15";48
"26.03.2024 00:30";48
"26.03.2024 00:45";48
"26.03.2024 01:00";48
"26.03.2024 01:15";48
"26.03.2024 01:30";48
"26.03.2024 01:45";48
"26.03.2024 02:00";48
"26.03.2024 02:15";48
"26.03.2024 02:30";48
"26.03.2024 02:45";48
"26.03.2024 03:00";48
"26.03.2024 03:15";48
"26.03.2024 03:30";48
"26.03.2024 03:45";48
"26.03.2024 04:00";48
"26.03.2024 04:15";48
"26.03.2024 04:30";48
"26.03.2024 04:45";47
"26.03.2024 05:00";47
"26.03.2024 05:15";47
"26.03.2024 05:30";47
"26.03.2024 05:45";47
"26.03.2024 06:00";47
"26.03.2024 06:15";48
"26.03.2024 06:30";48
"26.03.2024 06:45";48
"26.03.2024 07:00";48
"26.03.2024 07:15";48
"26.03.2024 07:30";48
"26.03.2024 07:45";48
"26.03.2024 08:00";48
"26.03.2024 08:15";48
"26.03.2024 08:30";48
"26.03.2024 08:45";48
"26.03.2024 09:00";48
"26.03.2024 09:15";48
"26.03.2024 09:30";48
"26.03.2024 09:45";48
"26.03.2024 10:00";48
"26.03.2024 10:15";48
"26.03.2024 10:30";48
"26.03.2024 10:45";48
"26.03.2024 11:00";48
"26.03.2024 11:15";48
"26.03.2024 11:30";48
"26.03.2024 11:45";48
"26.03.2024 12:00";48
"26.03.2024 12:15";48
"26.03.2024 12:30";48
"26.03.2024 12:45";48
"26.03.2024 13:00";48
"26.03.2024 13:15";48
"26.03.2024 13:30";48
"26.03.2024 13:45";48
"26.03.2024 14:00";48
"26.03.2024 14:15";48
"26.03.2024 14:30";48
"26.03.2024 14:45";48
"26.03.2024 15:00";48
"26.03.2024 15:15";48
"26.03.2024 15:30";48
"26.03.2024 15:45";48
"26.03.2024 16:00";47
"26.03.2024 16:15";47
"26.03.2024 16:30";47
"26.03.2024 16:45";47
"26.03.2024 17:00";47
"26.03.2024 17:15";47
"26.03.2024 17:30";47
"26.03.2024 17:45";47
"26.03.2024 18:00";47
"26.03.2024 18:15";47
"26.03.2024 18:30";47
"26.03.2024 18:45";47
"26.03.2024 19:00";47
"26.03.2024 19:15";47
"26.03.2024 19:30";47
"26.03.2024 19:45";47
"26.03.2024 20:00";47
"26.03.2024 20:15";47
"26.03.2024 20:30";47
"26.03.2024 20:45";47
"26.03.2024 21:00";47
"26.03.2024 21:15";47
"26.03.2024 21:30";47
"26.03.2024 21:45";47
"26.03.2024 22:00";46
"26.03.2024 22:15";46
"26.03.2024 22:30";46
"26.03.2024 22:45";46
"26.03.2024 23:00";46
"26.03.2024 23:15";46
"26.03.2024 23:30";46
"26.03.2024 23:45";46
"27.03.2024 00:00";46
"27.03.2024 00:15";46
"27.03.2024 00:30";46
"27.03.2024 00:45";46
"27.03.2024 01:00";46
"27.03.2024 01:15";46
"27.03.2024 01:30";46
"27.03.2024 01:45";46
"27.03.2024 02:00";46
"27.03.2024 02:15";46
"27.03.2024 02:30";46
"27.03.2024 02:45";46
"27.03.2024 03:00";46
"27.03.2024 03:15";46
"27.03.2024 03:30";46
"27.03.2024 03:45";46
"27.03.2024 04:00";46
"27.03.2024 04:15";46
"27.03.2024 04:30";46
"27.03.2024 04:45";46
"27.03.2024 05:00";47
"27.03.2024 05:15";47
"27.03.2024 05:30";47
"27.03.2024 05:45";47
"27.03.2024 06:00";47
"27.03.2024 06:15";47
"27.03.2024 06:30";47
"27.03.2024 06:45";47
"27.03.2024 07:00";47
"27.03.2024 07:15";47
"27.03.2024 07:30";47
"27.03.2024 07:45";49
"27.03.2024 08:00";51
"27.03.2024 08:15";51
"27.03.2024 08:30";51
"27.03.2024 08:45";51
"27.03.2024 09:00";51
"27.03.2024 09:15";51
"27.03.2024 09:30";51
"27.03.2024 09:45";51
"27.03.2024 10:00";51
"27.03.2024 10:15";51
"27.03.2024 10:30";51
"27.03.2024 10:45";51
"27.03.2024 11:00";51
"27.03.2024 11:15";51
"27.03.2024 11:30";51
"27.03.2024 11:45";51
"27.03.2024 12:00";51
"27.03.2024 12:15";51
"27.03.2024 12:30";51
"27.03.2024 12:45";51
"27.03.2024 13:00";51
"27.03.2024 13:15";51
"27.03.2024 13:30";51
"27.03.2024 13:45";51
"27.03.2024 14:00";51
"27.03.2024 14:15";51
"27.03.2024 14:30";51
"27.03.2024 14:45";51
"27.03.2024 15:00";51
"27.03.2024 15:15";51
"27.03.2024 15:30";51
"27.03.2024 15:45";51
"27.03.2024 16:00";51
"27.03.2024 16:15";51
"27.03.2024 16:30";51
"27.03.2024 16:45";50
"27.03.2024 17:00";50
"27.03.2024 17:15";50
"27.03.2024 17:30";49
"27.03.2024 17:45";49
"27.03.2024 18:00";49
"27.03.2024 18:15";49
"27.03.2024 18:30";49
"27.03.2024 18:45";49
"27.03.2024 19:00";49
"27.03.2024 19:15";49
"27.03.2024 19:30";49
"27.03.2024 19:45";49
"27.03.2024 20:00";48
"27.03.2024 20:15";47
"27.03.2024 20:30";47
"27.03.2024 20:45";47
"27.03.2024 21:00";47
"27.03.2024 21:15";47
"27.03.2024 21:30";47
"27.03.2024 21:45";47
"27.03.2024 22:00";47
"27.03.2024 22:15";47
"27.03.2024 22:30";47
"27.03.2024 22:45";47
"27.03.2024 23:00";47
"27.03.2024 23:15";47
"27.03.2024 23:30";47
"27.03.2024 23:45";47
"28.03.2024 00:00";47
"28.03.2024 00:15";47
"28.03.2024 00:30";47
"28.03.2024 00:45";47
"28.03.2024 01:00";47
"28.03.2024 01:15";47
"28.03.2024 01:30";47
"28.03.2024 01:45";47
"28.03.2024 02:00";47
"28.03.2024 02:15";48
"28.03.2024 02:30";48
"28.03.2024 02:45";48
"28.03.2024 03:00";48
"28.03.2024 03:15";48
"28.03.2024 03:30";48
"28.03.2024 03:45";48
"28.03.2024 04:00";48
"28.03.2024 04:15";48
"28.03.2024 04:30";48
"28.03.2024 04:45";48
"28.03.2024 05:00";48
"28.03.2024 05:15";47
"28.03.2024 05:30";47
"28.03.2024 05:45";47
"28.03.2024 06:00";47
"28.03.2024 06:15";47
"28.03.2024 06:30";48
"28.03.2024 06:45";48
"28.03.2024 07:00";48
"28.03.2024 07:15";48
"28.03.2024 07:30";48
"28.03.2024 07:45";48
"28.03.2024 08:00";48
"28.03.2024 08:15";48
"28.03.2024 08:30";48
"28.03.2024 08:45";48
"28.03.2024 09:00";48
"28.03.2024 09:15";48
"28.03.2024 09:30";48
"28.03.2024 09:45";48
"28.03.2024 10:00";48
"28.03.2024 10:15";48
"28.03.2024 10:30";48
"28.03.2024 10:45";48
"28.03.2024 11:00";49
"28.03.2024 11:15";49
"28.03.2024 11:30";49
"28.03.2024 11:45";49
"28.03.2024 12:00";49
"28.03.2024 12:15";49
"28.03.2024 12:30";49
"28.03.2024 12:45";49
"28.03.2024 13:00";49
"28.03.2024 13:15";49
"28.03.2024 13:30";49
"28.03.2024 13:45";49
"28.03.2024 14:00";49
"28.03.2024 14:15";49
"28.03.2024 14:30";49
"28.03.2024 14:45";49
"28.03.2024 15:00";49
"28.03.2024 15:15";49
"28.03.2024 15:30";49
"28.03.2024 15:45";49
"28.03.2024 16:00";49
"28.03.2024 16:15";50
"28.03.2024 16:30";50
"28.03.2024 16:45";50
"28.03.2024 17:00";50
"28.03.2024 17:15";50
"28.03.2024 17:30";50
"28.03.2024 17:45";50
"28.03.2024 18:00";50
"28.03.2024 18:15";50
"28.03.2024 18:30";50
"28.03.2024 18:45";50
"28.03.2024 19:00";50
"28.03.2024 19:15";49
"28.03.2024 19:30";49
"28.03.2024 19:45";49
"28.03.2024 20:00";49
"28.03.2024 20:15";49
"28.03.2024 20:30";50
"28.03.2024 20:45";50
"28.03.2024 21:00";50
"28.03.2024 21:15";50
"28.03.2024 21:30";50
"28.03.2024 21:45";50
"28.03.2024 22:00";50
"28.03.2024 22:15";50
"28.03.2024 22:30";50
"28.03.2024 22:45";49
"28.03.2024 23:00";49
"28.03.2024 23:15";49
"28.03.2024 23:30";49
"28.03.2024 23:45";49
"29.03.2024 00:00";49
"29.03.2024 00:15";49
"29.03.2024 00:30";49
"29.03.2024 00:45";49
"29.03.2024 01:00";49
"29.03.2024 01:15";49
"29.03.2024 01:30";49
"29.03.2024 01:45";49
"29.03.2024 02:00";49
"29.03.2024 02:15";49
"29.03.2024 02:30";49
"29.03.2024 02:45";49
"29.03.2024 03:00";49
"29.03.2024 03:15";49
"29.03.2024 03:30";49
"29.03.2024 03:45";49
"29.03.2024 04:00";49
"29.03.2024 04:15";49
"29.03.2024 04:30";49
"29.03.2024 04:45";49
"29.03.2024 05:00";48
"29.03.2024 05:15";48
"29.03.2024 05:30";48
"29.03.2024 05:45";48
"29.03.2024 06:00";48
"29.03.2024 06:15";48
"29.03.2024 06:30";48
"29.03.2024 06:45";48
"29.03.2024 07:00";48
"29.03.2024 07:15";48
"29.03.2024 07:30";48
"29.03.2024 07:45";48
"29.03.2024 08:00";48
"29.03.2024 08:15";48
"29.03.2024 08:30";48
"29.03.2024 08:45";48
"29.03.2024 09:00";48
"29.03.2024 09:15";48
"29.03.2024 09:30";48
"29.03.2024 09:45";48
"29.03.2024 10:00";48
"29.03.2024 10:15";48
"29.03.2024 10:30";48
"29.03.2024 10:45";48
"29.03.2024 11:00";48
"29.03.2024 11:15";48
"29.03.2024 11:30";48
"29.03.2024 11:45";48
"29.03.2024 12:00";48
"29.03.2024 12:15";48
"29.03.2024 12:30";48
"29.03.2024 12:45";48
"29.03.2024 13:00";48
"29.03.2024 13:15";48
"29.03.2024 13:30";48
"29.03.2024 13:45";48
"29.03.2024 14:00";48
"29.03.2024 14:15";48
"29.03.2024 14:30";48
"29.03.2024 14:45";48
"29.03.2024 15:00";48
"29.03.2024 15:15";48
"29.03.2024 15:30";48
"29.03.2024 15:45";47
"29.03.2024 16:00";47
"29.03.2024 16:15";47
"29.03.2024 16:30";47
"29.03.2024 16:45";47
"29.03.2024 17:00";47
"29.03.2024 17:15";47
"29.03.2024 17:30";47
"29.03.2024 17:45";47
"29.03.2024 18:00";46
"29.03.2024 18:15";46
"29.03.2024 18:30";46
"29.03.2024 18:45";46
"29.03.2024 19:00";46
"29.03.2024 19:15";46
"29.03.2024 19:30";46
"29.03.2024 19:45";46
"29.03.2024 20:00";46
"29.03.2024 20:15";46
"29.03.2024 20:30";46
"29.03.2024 20:45";46
"29.03.2024 21:00";46
"29.03.2024 21:15";46
"29.03.2024 21:30";46
"29.03.2024 21:45";46
"29.03.2024 22:00";46
"29.03.2024 22:15";46
"29.03.2024 22:30";46
"29.03.2024 22:45";46
"29.03.2024 23:00";46
"29.03.2024 23:15";45
"29.03.2024 23:30";45
"29.03.2024 23:45";45
"30.03.2024 00:00";45
"30.03.2024 00:15";45
"30.03.2024 00:30";45
"30.03.2024 00:45";45
"30.03.2024 01:00";46
"30.03.2024 01:15";45
"30.03.2024 01:30";46
"30.03.2024 01:45";46
"30.03.2024 02:00";46
"30.03.2024 02:15";46
"30.03.2024 02:30";46
"30.03.2024 02:45";46
"30.03.2024 03:00";46
"30.03.2024 03:15";46
"30.03.2024 03:30";46
"30.03.2024 03:45";46
"30.03.2024 04:00";46
"30.03.2024 04:15";46
"30.03.2024 04:30";46
"30.03.2024 04:45";46
"30.03.2024 05:00";46
"30.03.2024 05:15";46
"30.03.2024 05:30";46
"30.03.2024 05:45";46
"30.03.2024 06:00";46
"30.03.2024 06:15";46
"30.03.2024 06:30";46
"30.03.2024 06:45";46
"30.03.2024 07:00";47
"30.03.2024 07:15";47
"30.03.2024 07:30";47
"30.03.2024 07:45";47
"30.03.2024 08:00";47
"30.03.2024 08:15";47
"30.03.2024 08:30";47
"30.03.2024 08:45";47
"30.03.2024 09:00";47
"30.03.2024 09:15";47
"30.03.2024 09:30";47
"30.03.2024 09:45";47
"30.03.2024 10:00";47
"30.03.2024 10:15";47
"30.03.2024 10:30";47
"30.03.2024 10:45";47
"30.03.2024 11:00";47
"30.03.2024 11:15";47
"30.03.2024 11:30";47
"30.03.2024 11:45";47
"30.03.2024 12:00";47
"30.03.2024 12:15";47
"30.03.2024 12:30";47
"30.03.2024 12:45";47
"30.03.2024 13:00";47
"30.03.2024 13:15";47
"30.03.2024 13:30";47
"30.03.2024 13:45";47
"30.03.2024 14:00";47
"30.03.2024 14:15";47
"30.03.2024 14:30";46
"30.03.2024 14:45";46
"30.03.2024 15:00";46
"30.03.2024 15:15";46
"30.03.2024 15:30";46
"30.03.2024 15:45";46
"30.03.2024 16:00";46
"30.03.2024 16:15";46
"30.03.2024 16:30";46
"30.03.2024 16:45";46
"30.03.2024 17:00";46
"30.03.2024 17:15";46
"30.03.2024 17:30";46
"30.03.2024 17:45";46
"30.03.2024 18:00";46
"30.03.2024 18:15";46
"30.03.2024 18:30";46
"30.03.2024 18:45";46
"30.03.2024 19:00";46
"30.03.2024 19:15";46
"30.03.2024 19:30";46
"30.03.2024 19:45";46
"30.03.2024 20:00";46
"30.03.2024 20:15";46
"30.03.2024 20:30";46
"30.03.2024 20:45";45
"30.03.2024 21:00";45
"30.03.2024 21:15";45
"30.03.2024 21:30";45
"30.03.2024 21:45";45
"30.03.2024 22:00";45
"30.03.2024 22:15";45
"30.03.2024 22:30";45
"30.03.2024 22:45";44
"30.03.2024 23:00";44
"30.03.2024 23:15";44
"30.03.2024 23:30";44
"30.03.2024 23:45";44
"31.03.2024 00:00";44
"31.03.2024 00:15";44
"31.03.2024 00:30";44
"31.03.2024 00:45";44
"31.03.2024 01:00";44
"31.03.2024 01:15";44
"31.03.2024 01:30";44
"31.03.2024 01:45";44
"31.03.2024 02:00";45
"31.03.2024 02:15";45
"31.03.2024 02:30";45
"31.03.2024 02:45";45
"31.03.2024 03:00";45
"31.03.2024 03:15";46
"31.03.2024 03:30";46
"31.03.2024 03:45";46
"31.03.2024 04:00";46
"31.03.2024 04:15";46
"31.03.2024 04:30";46
"31.03.2024 04:45";46
"31.03.2024 05:00";46
"31.03.2024 05:15";46
"31.03.2024 05:30";46
"31.03.2024 05:45";46
"31.03.2024 06:00";46
"31.03.2024 06:15";46
"31.03.2024 06:30";46
"31.03.2024 06:45";46
"31.03.2024 07:00";46
"31.03.2024 07:15";46
"31.03.2024 07:30";46
"31.03.2024 07:45";46
"31.03.2024 08:00";46
"31.03.2024 08:15";46
"31.03.2024 08:30";46
"31.03.2024 08:45";46
"31.03.2024 09:00";46
"31.03.2024 09:15";46
"31.03.2024 09:30";46
"31.03.2024 09:45";46
"31.03.2024 10:00";46
"31.03.2024 10:15";46
"31.03.2024 10:30";46
"31.03.2024 10:45";46
"31.03.2024 11:00";46
"31.03.2024 11:15";46
"31.03.2024 11:30";46
"31.03.2024 11:45";46
"31.03.2024 12:00";46
"31.03.2024 12:15";46
"31.03.2024 12:30";46
"31.03.2024 12:45";46
"31.03.2024 13:00";46
"31.03.2024 13:15";46
"31.03.2024 13:30";46
"31.03.2024 13:45";46
"31.03.2024 14:00";46
"31.03.2024 14:15";46
"31.03.2024 14:30";46
"31.03.2024 14:45";46
"31.03.2024 15:00";46
"31.03.2024 15:15";45
"31.03.2024 15:30";45
"31.03.2024 15:45";45
"31.03.2024 16:00";45
"31.03.2024 16:15";45
"31.03.2024 16:30";45
"31.03.2024 16:45";45
"31.03.2024 17:00";45
"31.03.2024 17:15";45
"31.03.2024 17:30";45
"31.03.2024 17:45";45
"31.03.2024 18:00";45
"31.03.2024 18:15";45
"31.03.2024 18:30";45
"31.03.2024 18:45";45
"31.03.2024 19:00";45
"31.03.2024 19:15";45
"31.03.2024 19:30";45
"31.03.2024 19:45";45
"31.03.2024 20:00";45
"31.03.2024 20:15";45
"31.03.2024 20:30";44
"31.03.2024 20:45";44
"31.03.2024 21:00";44
"31.03.2024 21:15";44
"31.03.2024 21:30";44
"31.03.2024 21:45";44
"31.03.2024 22:00";44
"31.03.2024 22:15";44
"31.03.2024 22:30";44
"31.03.2024 22:45";44
"31.03.2024 23:00";44
"31.03.2024 23:15";44
"31.03.2024 23:30";44
"31.03.2024 23:45";44
"01.04.2024 00:00";44
"01.04.2024 00:15";44
"01.04.2024 00:30";45
"01.04.2024 00:45";45
"01.04.2024 01:00";45
"01.04.2024 01:15";45
"01.04.2024 01:30";45
"01.04.2024 01:45";45
"01.04.2024 02:00";46
"01.04.2024 02:15";46
"01.04.2024 02:30";46
"01.04.2024 02:45";46
"01.04.2024 03:00";46
"01.04.2024 03:15";46
"01.04.2024 03:30";46
"01.04.2024 03:45";46
"01.04.2024 04:00";46
"01.04.2024 04:15";46
"01.04.2024 04:30";46
"01.04.2024 04:45";46
"01.04.2024 05:00";46
"01.04.2024 05:15";46
"01.04.2024 05:30";46
"01.04.2024 05:45";46
"01.04.2024 06:00";46
"01.04.2024 06:15";46
"01.04.2024 06:30";47
"01.04.2024 06:45";47
"01.04.2024 07:00";47
"01.04.2024 07:15";47
"01.04.2024 07:30";47
"01.04.2024 07:45";47
"01.04.2024 08:00";47
"01.04.2024 08:15";47
"01.04.2024 08:30";47
"01.04.2024 08:45";47
"01.04.2024 09:00";47
"01.04.2024 09:15";47
"01.04.2024 09:30";47
"01.04.2024 09:45";47
"01.04.2024 10:00";47
"01.04.2024 10:15";47
"01.04.2024 10:30";47
"01.04.2024 10:45";47
"01.04.2024 11:00";47
"01.04.2024 11:15";47
"01.04.2024 11:30";47
"01.04.2024 11:45";47
"01.04.2024 12:00";47
"01.04.2024 12:15";47
"01.04.2024 12:30";47
"01.04.2024 12:45";47
"01.04.2024 13:00";47
"01.04.2024 13:15";47
"01.04.2024 13:30";47
"01.04.2024 13:45";46
"01.04.2024 14:00";46
"01.04.2024 14:15";46
"01.04.2024 14:30";46
"01.04.2024 14:45";46
"01.04.2024 15:00";46
"01.04.2024 15:15";46
"01.04.2024 15:30";46
"01.04.2024 15:45";45
"01.04.2024 16:00";45
"01.04.2024 16:15";44
"01.04.2024 16:30";44
"01.04.2024 16:45";44
"01.04.2024 17:00";44
"01.04.2024 17:15";44
"01.04.2024 17:30";44
"01.04.2024 17:45";44
"01.04.2024 18:00";44
"01.04.2024 18:15";44
"01.04.2024 18:30";44
"01.04.2024 18:45";44
"01.04.2024 19:00";44
"01.04.2024 19:15";44
"01.04.2024 19:30";44
"01.04.2024 19:45";44
"01.04.2024 20:00";44
"01.04.2024 20:15";44
"01.04.2024 20:30";44
"01.04.2024 20:45";44
"01.04.2024 21:00";44
"01.04.2024 21:15";44
"01.04.2024 21:30";44
"01.04.2024 21:45";44
"01.04.2024 22:00";43
"01.04.2024 22:15";43
"01.04.2024 22:30";43
"01.04.2024 22:45";43
"01.04.2024 23:00";43
"01.04.2024 23:15";43
"01.04.2024 23:30";43
"01.04.2024 23:45";43
"02.04.2024 00:00";43
"02.04.2024 00:15";43
"02.04.2024 00:30";43
"02.04.2024 00:45";43
"02.04.2024 01:00";43
"02.04.2024 01:15";43
"02.04.2024 01:30";44
"02.04.2024 01:45";44
"02.04.2024 02:00";45
"02.04.2024 02:15";45
"02.04.2024 02:30";45
"02.04.2024 02:45";45
"02.04.2024 03:00";46
"02.04.2024 03:15";46
"02.04.2024 03:30";46
"02.04.2024 03:45";46
"02.04.2024 04:00";46
"02.04.2024 04:15";47
"02.04.2024 04:30";47
"02.04.2024 04:45";47
"02.04.2024 05:00";47
"02.04.2024 05:15";47
"02.04.2024 05:30";47
"02.04.2024 05:45";47
"02.04.2024 06:00";47
"02.04.2024 06:15";47
"02.04.2024 06:30";47
"02.04.2024 06:45";47
"02.04.2024 07:00";47
"02.04.2024 07:15";47
"02.04.2024 07:30";47
"02.04.2024 07:45";47
"02.04.2024 08:00";47
"02.04.2024 08:15";48
"02.04.2024 08:30";48
"02.04.2024 08:45";48
"02.04.2024 09:00";48
"02.04.2024 09:15";48
"02.04.2024 09:30";48
"02.04.2024 09:45";48
"02.04.2024 10:00";48
"02.04.2024 10:15";48
"02.04.2024 10:30";48
"02.04.2024 10:45";48
"02.04.2024 11:00";48
"02.04.2024 11:15";48
"02.04.2024 11:30";48
"02.04.2024 11:45";48
"02.04.2024 12:00";48
"02.04.2024 12:15";48
"02.04.2024 12:30";48
"02.04.2024 12:45";48
"02.04.2024 13:00";48
"02.04.2024 13:15";47
"02.04.2024 13:30";47
"02.04.2024 13:45";47
"02.04.2024 14:00";47
"02.04.2024 14:15";47
"02.04.2024 14:30";47
"02.04.2024 14:45";47
"02.04.2024 15:00";47
"02.04.2024 15:15";47
"02.04.2024 15:30";47
"02.04.2024 15:45";47
"02.04.2024 16:00";47
"02.04.2024 16:15";47
"02.04.2024 16:30";47
"02.04.2024 16:45";47
"02.04.2024 17:00";47
"02.04.2024 17:15";47
"02.04.2024 17:30";47
"02.04.2024 17:45";47
"02.04.2024 18:00";47
"02.04.2024 18:15";47
"02.04.2024 18:30";47
"02.04.2024 18:45";47
"02.04.2024 19:00";47
"02.04.2024 19:15";47
"02.04.2024 19:30";48
"02.04.2024 19:45";48
"02.04.2024 20:00";48
"02.04.2024 20:15";48
"02.04.2024 20:30";48
"02.04.2024 20:45";49
"02.04.2024 21:00";49
"02.04.2024 21:15";49
"02.04.2024 21:30";49
"02.04.2024 21:45";49
"02.04.2024 22:00";49
"02.04.2024 22:15";49
"02.04.2024 22:30";50
"02.04.2024 22:45";50
"02.04.2024 23:00";50
"02.04.2024 23:15";50
"02.04.2024 23:30";50
"02.04.2024 23:45";51
"03.04.2024 00:00";51
"03.04.2024 00:15";52
"03.04.2024 00:30";52
"03.04.2024 00:45";52
"03.04.2024 01:00";52
"03.04.2024 01:15";52
"03.04.2024 01:30";53
"03.04.2024 01:45";53
"03.04.2024 02:00";53
"03.04.2024 02:15";53
"03.04.2024 02:30";53
"03.04.2024 02:45";53
"03.04.2024 03:00";53
"03.04.2024 03:15";54
"03.04.2024 03:30";54
"03.04.2024 03:45";54
"03.04.2024 04:00";54
"03.04.2024 04:15";54
"03.04.2024 04:30";54
"03.04.2024 04:45";54
"03.04.2024 05:00";54
"03.04.2024 05:15";54
"03.04.2024 05:30";53
"03.04.2024 05:45";54
"03.04.2024 06:00";54
"03.04.2024 06:15";54
"03.04.2024 06:30";54
"03.04.2024 06:45";54
"03.04.2024 07:00";54
"03.04.2024 07:15";54
"03.04.2024 07:30";54
"03.04.2024 07:45";54
"03.04.2024 08:00";54
"03.04.2024 08:15";54
"03.04.2024 08:30";54
"03.04.2024 08:45";54
"03.04.2024 09:00";54
"03.04.2024 09:15";54
"03.04.2024 09:30";54
"03.04.2024 09:45";54
"03.04.2024 10:00";54
"03.04.2024 10:15";54
"03.04.2024 10:30";54
"03.04.2024 10:45";54
"03.04.2024 11:00";54
"03.04.2024 11:15";54
"03.04.2024 11:30";54
"03.04.2024 11:45";54
"03.04.2024 12:00";54
"03.04.2024 12:15";55
"03.04.2024 12:30";55
"03.04.2024 12:45";55
"03.04.2024 13:00";55
"03.04.2024 13:15";55
"03.04.2024 13:30";55
"03.04.2024 13:45";55
"03.04.2024 14:00";55
"03.04.2024 14:15";55
"03.04.2024 14:30";55
"03.04.2024 14:45";55
"03.04.2024 15:00";55
"03.04.2024 15:15";55
"03.04.2024 15:30";55
"03.04.2024 15:45";55
"03.04.2024 16:00";55
"03.04.2024 16:15";55
"03.04.2024 16:30";55
"03.04.2024 16:45";55
"03.04.2024 17:00";55
"03.04.2024 17:15";55
"03.04.2024 17:30";55
"03.04.2024 17:45";55
"03.04.2024 18:00";55
"03.04.2024 18:15";55
"03.04.2024 18:30";55
"03.04.2024 18:45";55
"03.04.2024 19:00";55
"03.04.2024 19:15";55
"03.04.2024 19:30";55
"03.04.2024 19:45";55
"03.04.2024 20:00";55
"03.04.2024 20:15";55
"03.04.2024 20:30";55
"03.04.2024 20:45";55
"03.04.2024 21:00";55
"03.04.2024 21:15";55
"03.04.2024 21:30";55
"03.04.2024 21:45";55
"03.04.2024 22:00";55
"03.04.2024 22:15";55
"03.04.2024 22:30";55
"03.04.2024 22:45";55
"03.04.2024 23:00";55
"03.04.2024 23:15";55
"03.04.2024 23:30";56
"03.04.2024 23:45";56
"04.04.2024 00:00";56
"04.04.2024 00:15";56
"04.04.2024 00:30";56
"04.04.2024 00:45";56
"04.04.2024 01:00";56
"04.04.2024 01:15";56
"04.04.2024 01:30";56
"04.04.2024 01:45";57
"04.04.2024 02:00";57
"04.04.2024 02:15";58
"04.04.2024 02:30";59
"04.04.2024 02:45";59
"04.04.2024 03:00";59
"04.04.2024 03:15";59
"04.04.2024 03:30";60
"04.04.2024 03:45";60
"04.04.2024 04:00";60
"04.04.2024 04:15";60
"04.04.2024 04:30";60
"04.04.2024 04:45";60
"04.04.2024 05:00";60
"04.04.2024 05:15";60
"04.04.2024 05:30";60
"04.04.2024 05:45";60
"04.04.2024 06:00";60
"04.04.2024 06:15";60
"04.04.2024 06:30";60
"04.04.2024 06:45";60
"04.04.2024 07:00";60
"04.04.2024 07:15";60
"04.04.2024 07:30";60
"04.04.2024 07:45";60
"04.04.2024 08:00";60
"04.04.2024 08:15";60
"04.04.2024 08:30";60
"04.04.2024 08:45";60
"04.04.2024 09:00";61
"04.04.2024 09:15";61
"04.04.2024 09:30";61
"04.04.2024 09:45";61
"04.04.2024 10:00";61
"04.04.2024 10:15";61
"04.04.2024 10:30";61
"04.04.2024 10:45";61
"04.04.2024 11:00";61
"04.04.2024 11:15";61
"04.04.2024 11:30";61
"04.04.2024 11:45";61
"04.04.2024 12:00";61
"04.04.2024 12:15";61
"04.04.2024 12:30";61
"04.04.2024 12:45";61
"04.04.2024 13:00";60
"04.04.2024 13:15";60
"04.04.2024 13:30";60
"04.04.2024 13:45";60
"04.04.2024 14:00";60
"04.04.2024 14:15";60
"04.04.2024 14:30";60
"04.04.2024 14:45";60
"04.04.2024 15:00";60
"04.04.2024 15:15";60
"04.04.2024 15:30";60
"04.04.2024 15:45";60
"04.04.2024 16:00";60
"04.04.2024 16:15";60
"04.04.2024 16:30";60
"04.04.2024 16:45";60
"04.04.2024 17:00";61
"04.04.2024 17:15";61
"04.04.2024 17:30";61
"04.04.2024 17:45";62
"04.04.2024 18:00";62
"04.04.2024 18:15";61
"04.04.2024 18:30";61
"04.04.2024 18:45";61
"04.04.2024 19:00";61
"04.04.2024 19:15";61
"04.04.2024 19:30";61
"04.04.2024 19:45";61
"04.04.2024 20:00";61
"04.04.2024 20:15";60
"04.04.2024 20:30";60
"04.04.2024 20:45";60
"04.04.2024 21:00";60
"04.04.2024 21:15";60
"04.04.2024 21:30";60
"04.04.2024 21:45";60
"04.04.2024 22:00";60
"04.04.2024 22:15";60
"04.04.2024 22:30";60
"04.04.2024 22:45";60
"04.04.2024 23:00";60
"04.04.2024 23:15";60
"04.04.2024 23:30";60
"04.04.2024 23:45";60
"05.04.2024 00:00";60
"05.04.2024 00:15";60
"05.04.2024 00:30";60
"05.04.2024 00:45";60
"05.04.2024 01:00";60
"05.04.2024 01:15";60
"05.04.2024 01:30";60
"05.04.2024 01:45";60
"05.04.2024 02:00";60
"05.04.2024 02:15";60
"05.04.2024 02:30";60
"05.04.2024 02:45";60
"05.04.2024 03:00";60
"05.04.2024 03:15";60
"05.04.2024 03:30";60
"05.04.2024 03:45";60
"05.04.2024 04:00";60
"05.04.2024 04:15";60
"05.04.2024 04:30";60
"05.04.2024 04:45";60
"05.04.2024 05:00";60
"05.04.2024 05:15";60
"05.04.2024 05:30";60
"05.04.2024 05:45";60
"05.04.2024 06:00";60
"05.04.2024 06:15";60
"05.04.2024 06:30";60
"05.04.2024 06:45";60
"05.04.2024 07:00";60